Location: Martley
(52.2333°N, 2.3667°W)
Time: 11:03:48
(UTC+00:00)

Cosmos 2082 Rocket - Pass Details

Date: 11 December 2019
Orbit: 834 x 852 km, 71.0° (Epoch: 22 January)

Event Time Altitude Azimuth Distance (km) Brightness Sun altitude
Exits shadow 05:35:58 11° 348° (NNW) 2,417 4.4 -21.9°
Maximum altitude 05:39:27 18° 27° (NNE) 1,981 4.3 -21.4°
Drops below altitude 10° 05:43:10 10° 69° (ENE) 2,460 5.4 -20.9°
Sets 05:46:29 0° 88° (E) 3,389 6.8 -20.4°
